South Bend, IN

7:08 PM EST on January 19, 2018 (GMT -0500)
South Bend Regional

Weather History for KSBN - January, 2013

Change the Weather History Date:

Friday, January 4, 2013

  Actual Average Record
Temperature  
Mean Temperature 22 °F 25 °F  
Max Temperature 30 °F 32 °F 63 °F (1997)
Min Temperature 14 °F 18 °F -10 °F (1904)
Degree Days  
Heating Degree Days 43 40  
Month to date heating degree days 177 160  
Since 1 July heating degree days 2377 2551  
Cooling Degree Days 0 0  
Month to date cooling degree days 0 0  
Year to date cooling degree days 0 0  
Moisture  
Dew Point 15 °F    
Average Humidity 74    
Maximum Humidity 84    
Minimum Humidity 63    
Precipitation  
Precipitation 0.00 in 0.08 in 1.76 in (1993)
Month to date precipitation T 0.34  
Year to date precipitation T 0.34  
Snow  
Snow 0.00 in 0.60 in 4.60 in (2016)
Month to date snowfall T 2.5  
Since 1 July snowfall 9.1 25.0  
Snow Depth 2.00 in    
Sea Level Pressure  
Sea Level Pressure 30.24 in    
Wind  
Wind Speed 13 mph (SW)    
Max Wind Speed 23 mph    
Max Gust Speed 28 mph    
Visibility 10 miles    
Events      
T = Trace of Precipitation, MM = Missing Value Source: NWS Daily Summary

Daily Weather History Graph

Daily Weather History Graph

Search for Another Location

Airport or City:

Trip Planner

Search our weather history database for the weather conditions in past years. The results will help you decide how hot, cold, wet, or windy it might be!

Date:

Astronomy

Jan. 04, 2013 Rise Set
Actual Time 8:12 AM EST 5:28 PM EST
Civil Twilight 7:41 AM EST 5:59 PM EST
Nautical Twilight 7:06 AM EST 6:34 PM EST
Astronomical Twilight 6:32 AM EST 7:08 PM EST
Moon 12:08 AM EST (1/4) 11:48 AM EST (1/4)
Length of Visible Light 10h 18m
Length of Day
9h 15m
Waning Gibbous, 55% of the Moon is Illuminated
Jan 4
Waning Gibbous
Jan 4
Last Quarter
Jan 11
New
Jan 18
First Quarter
Jan 26
Full

Hourly Weather History & Observations

Time (EST) Temp. Windchill Dew Point Humidity Pressure Visibility Wind Dir Wind Speed Gust Speed Precip Events Conditions
12:18 AM 23.0 °F 13.1 °F 15.8 °F 74% 30.22 in 10.0 mi SW 9.2 mph - N/A   Mostly Cloudy
12:54 AM 21.9 °F 12.5 °F 16.0 °F 78% 30.25 in 10.0 mi SW 8.1 mph - N/A   Clear
1:54 AM 19.9 °F 9.3 °F 15.1 °F 81% 30.26 in 10.0 mi SW 9.2 mph - N/A   Clear
2:54 AM 19.0 °F 8.2 °F 14.0 °F 81% 30.25 in 8.0 mi SW 9.2 mph - N/A   Clear
3:54 AM 18.0 °F 6.9 °F 12.9 °F 81% 30.25 in 9.0 mi WSW 9.2 mph - N/A   Clear
4:54 AM 17.1 °F 5.0 °F 12.0 °F 81% 30.23 in 10.0 mi SW 10.4 mph - N/A   Clear
5:54 AM 17.1 °F 5.0 °F 12.0 °F 81% 30.24 in 9.0 mi SW 10.4 mph - N/A   Clear
6:54 AM 16.0 °F 1.7 °F 10.9 °F 81% 30.24 in 9.0 mi SW 13.8 mph - N/A   Clear
7:54 AM 15.1 °F 1.8 °F 9.0 °F 77% 30.24 in 10.0 mi SW 11.5 mph - N/A   Clear
8:54 AM 14.0 °F 1.2 °F 9.0 °F 80% 30.25 in 8.0 mi SW 10.4 mph - N/A   Clear
9:54 AM 15.1 °F 0.5 °F 9.0 °F 77% 30.27 in 10.0 mi SW 13.8 mph - N/A   Clear
10:54 AM 17.1 °F 3.6 °F 10.0 °F 74% 30.26 in 10.0 mi SW 12.7 mph - N/A   Clear
11:54 AM 19.9 °F 5.7 °F 12.9 °F 74% 30.24 in 10.0 mi SW 16.1 mph 24.2 mph N/A   Clear
12:54 PM 23.0 °F 10.1 °F 15.1 °F 72% 30.21 in 10.0 mi SW 15.0 mph - N/A   Clear
1:54 PM 27.0 °F 13.5 °F 17.1 °F 66% 30.19 in 10.0 mi SW 19.6 mph 27.6 mph N/A   Clear
2:54 PM 28.9 °F 16.5 °F 18.0 °F 64% 30.18 in 10.0 mi SW 18.4 mph 25.3 mph N/A   Clear
3:54 PM 28.9 °F 16.5 °F 19.9 °F 69% 30.19 in 10.0 mi SW 18.4 mph - N/A   Clear
4:54 PM 28.9 °F 17.3 °F 19.9 °F 69% 30.19 in 10.0 mi SW 16.1 mph 24.2 mph N/A   Clear
5:54 PM 28.0 °F 17.0 °F 19.9 °F 72% 30.21 in 10.0 mi SW 13.8 mph - N/A   Clear
6:54 PM 27.0 °F 14.7 °F 19.9 °F 75% 30.23 in 10.0 mi SW 16.1 mph 23.0 mph N/A   Clear
7:54 PM 27.0 °F 15.6 °F 19.9 °F 75% 30.25 in 10.0 mi SW 13.8 mph - N/A   Clear
8:54 PM 26.1 °F 14.0 °F 19.9 °F 78% 30.25 in 10.0 mi WSW 15.0 mph - N/A   Clear
9:54 PM 26.1 °F 15.0 °F 19.9 °F 78% 30.26 in 10.0 mi WSW 12.7 mph - N/A   Clear
10:54 PM 26.1 °F 15.6 °F 19.9 °F 78% 30.26 in 10.0 mi SW 11.5 mph - N/A   Clear
11:54 PM 25.0 °F 15.5 °F 19.0 °F 78% 30.27 in 10.0 mi SW 9.2 mph - N/A   Clear